This is the latest recevied weather packets stored in our database for station/object VE6HFD-WX. If no packets are shown the sender has not sent any weather packets the latest 10 day(s).
| Time | Temp. | Humidity | Pressure | Rain* | Wind** | Luminosity | Snow |
|---|---|---|---|---|---|---|---|
| 1788583989 | 11.67° C | 87% | 1014.2 hPa | 0 mm | - | - | - |
| 1788583659 | 11.67° C | 87% | 1014.2 hPa | 0 mm | - | - | - |
| 1788583329 | 12.22° C | 88% | 1014.1 hPa | 0 mm | - | - | - |
| 1788583029 | 11.67° C | 88% | 1013.7 hPa | 0 mm | - | - | - |
| 1788582729 | 11.67° C | 88% | 1013.5 hPa | 0 mm | - | - | - |
| 1788582399 | 11.67° C | 87% | 1013.4 hPa | 0 mm | - | - | - |
| 1788582099 | 11.67° C | 86% | 1013.7 hPa | 0 mm | - | - | - |
| 1788581769 | 11.67° C | 86% | 1013.7 hPa | 0 mm | - | - | - |
| 1788581439 | 11.67° C | 86% | 1013.8 hPa | 0 mm | - | - | - |
| 1788581139 | 11.67° C | 85% | 1013.6 hPa | 0 mm | - | - | - |
| 1788580839 | 11.67° C | 84% | 1013.6 hPa | 0 mm | - | - | - |
| 1788580509 | 12.22° C | 84% | 1013.6 hPa | 0 mm | - | - | - |
| 1788580179 | 12.22° C | 84% | 1013.4 hPa | 0 mm | - | - | - |
| 1788579849 | 12.22° C | 83% | 1013.4 hPa | 0 mm | - | - | - |
| 1788579519 | 12.22° C | 83% | 1013.3 hPa | 0 mm | - | - | - |
| 1788579219 | 12.78° C | 82% | 1013.1 hPa | 0 mm | - | - | - |
| 1788578919 | 12.78° C | 81% | 1013.2 hPa | 0 mm | - | - | - |
| 1788578589 | 13.33° C | 81% | 1013.1 hPa | 0 mm | - | - | - |
| 1788578259 | 13.33° C | 80% | 1013 hPa | 0 mm | - | - | - |
| 1788577959 | 13.33° C | 80% | 1013.1 hPa | 0 mm | - | - | - |
| 1788577629 | 13.33° C | 79% | 1013 hPa | 0 mm | - | - | - |
| 1788577299 | 13.89° C | 79% | 1013 hPa | 0 mm | - | - | - |
| 1788576999 | 13.89° C | 77% | 1013 hPa | 0 mm | - | - | - |
| 1788576669 | 13.89° C | 76% | 1012.8 hPa | 0 mm | - | - | - |
| 1788576339 | 14.44° C | 75% | 1012.9 hPa | 0 mm | - | - | - |
* Rain latest hour (hover to see other rain measurements)
** Current wind speed in m/s (hover to see current wind gust speed)